This is the latest recevied weather packets stored in our database for station/object K0SDS. If no packets are shown the sender has not sent any weather packets the latest 10 day(s).
| Time | Temp. | Humidity | Pressure | Rain* | Wind** | Luminosity | Snow |
|---|---|---|---|---|---|---|---|
| 1778279057 | 17.78° C | 84% | 1007.2 hPa | 0 mm | - | 388 W/m² | - |
| 1778278754 | 17.22° C | 84% | 1007 hPa | 0 mm | - | 191 W/m² | - |
| 1778278449 | 16.67° C | 86% | 1007.1 hPa | 0 mm | - | 202 W/m² | - |
| 1778278146 | 17.22° C | 86% | 1006.8 hPa | 0 mm | - | 112 W/m² | - |
| 1778277842 | 16.67° C | 88% | 1006.8 hPa | 0 mm | - | 133 W/m² | - |
| 1778277538 | 16.67° C | 89% | 1006.8 hPa | 0 mm | - | 306 W/m² | - |
| 1778277236 | 16.67° C | 89% | 1006.9 hPa | 0 mm | - | 218 W/m² | - |
| 1778276932 | 16.11° C | 90% | 1006.9 hPa | 0 mm | - | 424 W/m² | - |
| 1778276630 | 15.56° C | 90% | 1006.9 hPa | 0 mm | - | 314 W/m² | - |
| 1778276326 | 15.56° C | 91% | 1007 hPa | 0 mm | - | 247 W/m² | - |
| 1778276023 | 15.56° C | 92% | 1007.3 hPa | 0 mm | - | 161 W/m² | - |
| 1778275719 | 15.56° C | 92% | 1007.2 hPa | 0 mm | - | 179 W/m² | - |
| 1778275416 | 15.56° C | 92% | 1007.5 hPa | 0 mm | - | 155 W/m² | - |
| 1778275111 | 15.56° C | 92% | 1007.8 hPa | 0 mm | - | 104 W/m² | - |
| 1778274807 | 15° C | 91% | 1008 hPa | 1.78 mm | - | 94 W/m² | - |
| 1778274505 | 15.56° C | 91% | 1008.3 hPa | 1.78 mm | - | 79 W/m² | - |
| 1778274202 | 15.56° C | 91% | 1008.5 hPa | 0 mm | - | 77 W/m² | - |
| 1778273899 | 15.56° C | 92% | 1008.5 hPa | 0 mm | - | 59 W/m² | - |
| 1778273595 | 15.56° C | 91% | 1008.2 hPa | 1.27 mm | - | 49 W/m² | - |
| 1778273291 | 15.56° C | 90% | 1008.3 hPa | 1.27 mm | - | 65 W/m² | - |
| 1778272988 | 15.56° C | 90% | 1008.7 hPa | 1.27 mm | - | 76 W/m² | - |
| 1778272684 | 15.56° C | 90% | 1008.9 hPa | 0 mm | - | 77 W/m² | - |
| 1778272380 | 15.56° C | 90% | 1008.5 hPa | 0 mm | - | 57 W/m² | - |
| 1778272076 | 16.11° C | 90% | 1008.7 hPa | 0 mm | - | 45 W/m² | - |
| 1778271774 | 16.11° C | 89% | 1008.6 hPa | 1.78 mm | - | 58 W/m² | - |
* Rain latest hour (hover to see other rain measurements)
** Current wind speed in m/s (hover to see current wind gust speed)